Location: Hylvaty SDH
(49.9612°N, 16.4057°E)
Time: 12:19:37
(UTC+01:00)

A-11 Canister half - Pass Details

Date: 04 October 2020
Orbit: 1526 x 1683 km, 47.3° (Epoch: 28 October)

Event Time Altitude Azimuth Distance (km) Brightness Sun altitude
Rises 20:48:14 0° 206° (SSW) 4,672 11.6 -23.4°
Reaches altitude 10° 20:51:41 10° 196° (SSW) 3,686 10.9 -23.9°
Enters shadow 20:58:01 30° 155° (SSE) 2,453 9.6 -24.8°
Maximum altitude 20:59:29 32° 138° (SE) 2,397 - -25.0°
Drops below altitude 10° 21:07:20 10° 81° (E) 3,722 - -26.2°
Sets 21:10:49 0° 72° (ENE) 4,724 - -26.7°
